• Join FlightAware (Why Join?)
  • Login
  • US Flag 
09:15AM EDT


 

Airport Tracker/Info


-or-


 

Live Flight TrackerFlight Track Log ✈ DAL268 ✈ 17-Jul-2013 ✈ KSFO - KJFK

Flight Track Log - Related Links

Times and Time Zones

All times are in EDT time to prevent confusion due to time zone crossing. See the DAL268 flight status page for this flight to view local times or setup timezone preferences in your user account.

Time Position Orientation Groundspeed Altitude Reporting Facility
EDT Latitude Longitude Course Direction KTS MPH feet Rate Location/Type
02:19PM 37.6160 -122.3820 North 13 15  Level FlightAware
02:19PM 37.6160 -122.3810 90° East 13 15  Level FlightAware
02:22PM 37.7969 -122.1864 38° Northeast  Level FlightAware Approximate
02:23PM 37.8885 -122.0948 38° Northeast  Level FlightAware Approximate
02:23PM 37.6140 -122.3810 38° Northeast 26 30  Level FlightAware
02:24PM 37.6120 -122.3830 218° Southwest 26 30 60 Level FlightAware
02:25PM 37.6090 -122.3840 195° South 16 18 120 Level FlightAware
02:26PM 37.6070 -122.3830 158° South 28 32 180 Level FlightAware
02:26PM 37.6060 -122.3830 180° South 28 32 240 Level FlightAware
02:27PM 37.6060 -122.3810 90° East 21 24 300 Level FlightAware
02:27PM 37.6100 -122.3780 31° Northeast 94 108 480 Level FlightAware
02:27PM 37.6245 -122.3690 26° Northeast 171 197 900 Level FlightAware ADS-B
02:27PM 37.6316 -122.3640 29° Northeast 170 196 500 2,820 Climbing FlightAware ADS-B
02:28PM 37.6380 -122.3570 41° Northeast 175 201 1,000 2,520 Climbing FlightAware ADS-B
02:28PM 37.6425 -122.3510 47° Northeast 182 209 1,300 1,500 Climbing FlightAware ADS-B
02:28PM 37.6495 -122.3410 49° Northeast 202 232 1,500 1,260 Climbing FlightAware ADS-B
02:28PM 37.6613 -122.3260 45° Northeast 226 260 1,900 2,040 Climbing FlightAware ADS-B
02:29PM 37.6734 -122.3100 46° Northeast 240 276 2,600 2,460 Climbing FlightAware ADS-B
02:29PM 37.6853 -122.2940 47° Northeast 252 290 3,200 2,520 Climbing FlightAware ADS-B
02:29PM 37.6888 -122.2900 42° Northeast 255 293 3,400 2,520 Climbing FlightAware ADS-B
02:29PM 37.6915 -122.2870 41° Northeast 259 298 3,500 2,460 Climbing FlightAware ADS-B
02:29PM 37.7114 -122.2670 38° Northeast 269 310 4,400 2,700 Climbing FlightAware ADS-B
02:29PM 37.7271 -122.2520 37° Northeast 272 313 5,200 2,880 Climbing FlightAware ADS-B
02:30PM 37.7562 -122.2230 38° Northeast 275 316 6,600 2,520 Climbing FlightAware ADS-B
02:30PM 37.7769 -122.2030 37° Northeast 286 329 7,300 2,520 Climbing FlightAware ADS-B
02:31PM 37.7995 -122.1820 36° Northeast 294 338 8,300 3,000 Climbing FlightAware ADS-B
02:31PM 37.8158 -122.1660 38° Northeast 294 338 9,100 2,700 Climbing FlightAware ADS-B
02:31PM 37.8324 -122.1500 37° Northeast 300 345 9,700 1,800 Climbing FlightAware ADS-B
02:32PM 37.8680 -122.1150 38° Northeast 327 376 10,500 1,200 Climbing FlightAware ADS-B
02:32PM 37.9075 -122.0760 38° Northeast 362 417 11,000 1,020 Climbing FlightAware ADS-B
02:33PM 37.9502 -122.0350 37° Northeast 391 450 11,600 1,320 Climbing FlightAware ADS-B
02:33PM 37.9981 -121.9880 38° Northeast 399 459 12,400 1,740 Climbing FlightAware ADS-B
02:34PM 38.0449 -121.9430 37° Northeast 417 480 13,400 1,980 Climbing FlightAware ADS-B
02:35PM 38.1230 -121.8670 37° Northeast 430 495 15,100 1,860 Climbing FlightAware
02:35PM 38.1970 -121.7940 38° Northeast 442 509 16,500 1,680 Climbing FlightAware
02:36PM 38.2520 -121.7400 38° Northeast 451 519 17,400 1,680 Climbing FlightAware
02:37PM 38.3180 -121.6750 38° Northeast 458 527 18,600 1,740 Climbing FlightAware
02:37PM 38.3970 -121.5980 37° Northeast 466 536 19,900 1,680 Climbing FlightAware
02:38PM 38.4550 -121.5290 43° Northeast 470 541 20,900 1,560 Climbing FlightAware
02:39PM 38.5030 -121.4510 52° Northeast 476 548 21,800 1,560 Climbing FlightAware
02:39PM 38.5600 -121.3530 53° Northeast 483 556 23,000 1,380 Climbing FlightAware
02:40PM 38.6190 -121.2510 53° Northeast 491 565 23,900 1,200 Climbing FlightAware
02:41PM 38.6770 -121.1510 53° Northeast 499 574 24,800 1,140 Climbing FlightAware
02:41PM 38.7340 -121.0510 54° Northeast 510 587 25,500 1,080 Climbing FlightAware
02:42PM 38.7880 -120.9580 53° Northeast 515 593 26,300 1,140 Climbing FlightAware
02:43PM 38.8530 -120.8450 54° Northeast 520 598 27,100 1,140 Climbing FlightAware
02:43PM 38.9110 -120.7450 53° Northeast 522 601 28,000 1,440 Climbing FlightAware
02:44PM 38.9710 -120.6410 53° Northeast 519 597 29,100 1,560 Climbing FlightAware
02:45PM 39.0340 -120.5320 53° Northeast 514 592 30,300 1,500 Climbing FlightAware
02:46PM 39.0910 -120.4330 53° Northeast 512 589 31,200 1,320 Climbing FlightAware
02:46PM 39.1470 -120.3360 53° Northeast 512 589 32,100 1,200 Climbing FlightAware
02:47PM 39.2310 -120.1880 54° Northeast 514 592 33,200 1,140 Climbing FlightAware
02:48PM 39.2870 -120.0900 54° Northeast 515 593 34,000 1,020 Climbing FlightAware
02:49PM 39.3460 -119.9860 54° Northeast 517 595 34,600 660 Climbing FlightAware
02:49PM 39.4050 -119.8810 54° Northeast 522 601 35,000 300 Climbing FlightAware
02:50PM 39.4570 -119.7890 54° Northeast 521 600 35,000  Level FlightAware
02:51PM 39.5140 -119.6870 54° Northeast 520 598 35,000  Level FlightAware
02:51PM 39.5770 -119.5740 54° Northeast 520 598 35,000  Level FlightAware
02:52PM 39.6220 -119.4930 54° Northeast 521 600 35,000 180 Level FlightAware
02:53PM 39.6850 -119.3800 54° Northeast 523 602 35,300 540 Climbing FlightAware
02:53PM 39.7380 -119.2840 54° Northeast 522 601 35,800 900 Climbing FlightAware
02:54PM 39.7990 -119.1740 54° Northeast 518 596 36,600 780 Climbing FlightAware
02:55PM 39.8610 -119.0610 54° Northeast 520 598 37,000 240 Climbing FlightAware
02:55PM 39.9210 -118.9530 54° Northeast 519 597 37,000  Level FlightAware
02:56PM 39.9760 -118.8520 55° Northeast 521 600 37,000  Level FlightAware
02:57PM 40.0380 -118.7380 55° Northeast 522 601 37,000  Level FlightAware
02:57PM 40.0930 -118.6380 54° Northeast 523 602 37,000  Level FlightAware
02:58PM 40.1420 -118.5160 62° Northeast 514 592 37,000  Level FlightAware
02:59PM 40.1750 -118.4000 70° East 513 590 37,000  Level FlightAware
03:00PM 40.2142 -118.2542 70° East 512 589 37,000  Level Salt Lake Center
03:00PM 40.2358 -118.1747 70° East 512 589 37,000  Level Oakland Center
03:01PM 40.2911 -117.9725 70° East 512 589 37,000  Level Oakland Center
03:02PM 40.3361 -117.8036 71° East 513 590 37,000  Level Oakland Center
03:03PM 40.3817 -117.6361 70° East 511 588 37,000  Level Oakland Center
03:04PM 40.4339 -117.4378 71° East 512 589 37,000  Level Oakland Center
03:05PM 40.4564 -117.3544 70° East 510 587 37,000  Level Salt Lake Center
03:06PM 40.5014 -117.1856 71° East 509 586 37,000  Level Salt Lake Center
03:11PM 40.8297 -116.2530 71° East 515 593 37,000  Level FlightAware ADS-B
03:12PM 40.8634 -116.1650 63° Northeast 516 594 37,000  Level FlightAware ADS-B
03:13PM 40.9168 -116.0250 63° Northeast 517 595 37,000  Level FlightAware ADS-B
03:13PM 40.9512 -115.9350 63° Northeast 517 595 37,000  Level FlightAware ADS-B
03:14PM 41.0142 -115.7690 63° Northeast 518 596 37,000  Level FlightAware ADS-B
03:15PM 41.0516 -115.6700 63° Northeast 518 596 37,000  Level FlightAware ADS-B
03:16PM 41.1203 -115.4880 63° Northeast 518 596 37,000  Level FlightAware ADS-B
03:17PM 41.1656 -115.3660 64° Northeast 517 595 37,000  Level FlightAware ADS-B
03:17PM 41.1974 -115.2810 64° Northeast 517 595 37,000  Level FlightAware ADS-B
03:18PM 41.2258 -115.2040 64° Northeast 518 596 37,000  Level FlightAware ADS-B
03:18PM 41.2546 -115.1270 64° Northeast 518 596 37,000  Level FlightAware ADS-B
03:18PM 41.2879 -115.0370 64° Northeast 517 595 37,000  Level FlightAware ADS-B
03:19PM 41.3361 -114.9060 64° Northeast 517 595 37,000  Level FlightAware ADS-B
03:20PM 41.3958 -114.7430 64° Northeast 517 595 37,000  Level FlightAware ADS-B
03:21PM 41.4440 -114.6110 64° Northeast 517 595 37,000  Level FlightAware ADS-B
03:21PM 41.4752 -114.5250 64° Northeast 514 592 37,000  Level FlightAware ADS-B
03:22PM 41.5064 -114.4390 64° Northeast 512 589 37,000  Level FlightAware ADS-B
03:22PM 41.5374 -114.3530 64° Northeast 511 588 37,000  Level FlightAware ADS-B
03:23PM 41.5683 -114.2670 64° Northeast 511 588 37,000  Level FlightAware ADS-B
03:23PM 41.5988 -114.1820 64° Northeast 511 588 37,000  Level FlightAware ADS-B
03:24PM 41.6316 -114.0900 64° Northeast 509 586 37,000  Level FlightAware ADS-B
03:25PM 41.6650 -113.9960 65° Northeast 509 586 37,000  Level FlightAware
03:25PM 41.7060 -113.8810 64° Northeast 509 586 37,000  Level FlightAware ADS-B
03:26PM 41.7365 -113.7950 65° Northeast 509 586 37,000  Level FlightAware ADS-B
03:26PM 41.7699 -113.7000 65° Northeast 508 585 37,000  Level FlightAware ADS-B
03:27PM 41.8003 -113.6140 65° Northeast 508 585 37,000  Level FlightAware ADS-B
03:27PM 41.8334 -113.5190 65° Northeast 507 583 37,000  Level FlightAware ADS-B
03:28PM 41.8840 -113.3730 65° Northeast 506 582 37,000  Level FlightAware
03:28PM 41.8910 -113.3540 64° Northeast 506 582 37,000  Level FlightAware ADS-B
03:29PM 41.9240 -113.2590 65° Northeast 506 582 37,000  Level FlightAware
03:30PM 41.9638 -113.1440 65° Northeast 507 583 37,000  Level FlightAware ADS-B
03:30PM 42.0130 -113.0010 65° Northeast 507 583 37,000  Level FlightAware ADS-B
03:31PM 42.0490 -112.8950 65° Northeast 506 582 37,000  Level FlightAware
03:32PM 42.0871 -112.7840 65° Northeast 506 582 37,000  Level FlightAware ADS-B
03:32PM 42.1202 -112.6870 65° Northeast 507 583 37,000  Level FlightAware ADS-B
03:33PM 42.1672 -112.5480 65° Northeast 507 583 37,000  Level FlightAware ADS-B
03:34PM 42.2216 -112.3860 66° East 506 582 37,000  Level FlightAware ADS-B
03:35PM 42.2820 -112.2000 66° East 506 582 37,000  Level FlightAware
03:35PM 42.3004 -112.1440 66° East 507 583 37,000  Level FlightAware ADS-B
03:36PM 42.3320 -112.0460 66° East 506 582 37,000  Level FlightAware ADS-B
03:37PM 42.3625 -111.9520 66° East 508 585 37,000  Level FlightAware ADS-B
03:37PM 42.3912 -111.8630 66° East 508 585 37,000  Level FlightAware ADS-B
03:38PM 42.4211 -111.7700 66° East 508 585 37,000  Level FlightAware ADS-B
03:38PM 42.4512 -111.6760 67° East 507 583 37,000  Level FlightAware ADS-B
03:39PM 42.4796 -111.5870 67° East 505 581 37,000  Level FlightAware ADS-B
03:39PM 42.5126 -111.4830 67° East 504 580 37,000  Level FlightAware ADS-B
03:40PM 42.5560 -111.3450 67° East 502 578 37,000  Level FlightAware
03:41PM 42.5860 -111.2550 66° East 502 578 37,000  Level FlightAware
03:41PM 42.6097 -111.1756 66° East 500 575 37,000  Level Salt Lake Center
03:42PM 42.6639 -111.0019 67° East 500 575 37,000  Level Salt Lake Center
03:43PM 42.7211 -110.8175 67° East 502 578 37,000  Level Salt Lake Center
03:44PM 42.7744 -110.6419 67° East 504 580 37,000  Level Salt Lake Center
03:45PM 42.8306 -110.4622 67° East 495 570 37,000  Level Salt Lake Center
03:46PM 42.8903 -110.2667 67° East 499 574 37,000  Level Salt Lake Center
03:48PM 42.9646 -109.9723 68° East  Level FlightAware Approximate
03:48PM 42.9992 -109.9033 68° East 499 574 37,000  Level Salt Lake Center
03:49PM 43.0514 -109.7306 67° East 495 570 37,000  Level Salt Lake Center
03:50PM 43.1039 -109.5567 67° East 496 571 37,000  Level Salt Lake Center
03:51PM 43.1536 -109.3836 68° East 494 568 37,000  Level Salt Lake Center
03:53PM 43.2050 -109.2100 68° East 494 568 37,000  Level Salt Lake Center
03:54PM 43.2653 -109.0006 68° East 494 568 37,000  Level Salt Lake Center
03:55PM 43.3142 -108.8244 69° East 496 571 37,000  Level Salt Lake Center
03:56PM 43.3639 -108.6517 68° East 490 564 37,000  Level Salt Lake Center
03:57PM 43.4131 -108.4775 69° East 491 565 37,000  Level Salt Lake Center
03:58PM 43.4603 -108.3033 69° East 488 562 37,000  Level Salt Lake Center
03:59PM 43.4844 -108.1192 80° East 491 565 37,000  Level Salt Lake Center
04:00PM 43.5111 -107.8978 80° East 491 565 37,000  Level Salt Lake Center
04:01PM 43.5319 -107.7125 81° East 494 568 37,000  Level Salt Lake Center
04:02PM 43.5522 -107.5306 81° East 486 559 37,000  Level Salt Lake Center
04:03PM 43.5739 -107.3478 81° East 486 559 37,000  Level Salt Lake Center
04:04PM 43.5939 -107.1642 81° East 486 559 37,000  Level Salt Lake Center
04:04PM 43.6075 -107.0519 80° East 489 563 37,000  Level Denver Center
04:05PM 43.6292 -106.8492 82° East 484 557 37,000  Level Denver Center
04:07PM 43.6481 -106.6719 82° East 486 559 37,000  Level Denver Center
04:08PM 43.6697 -106.4653 82° East 485 558 37,000  Level Denver Center
04:09PM 43.6892 -106.2881 81° East 486 559 37,000  Level Denver Center
04:10PM 43.7097 -106.0811 82° East 486 559 37,000  Level Denver Center
04:11PM 43.7269 -105.9042 82° East 486 559 37,000  Level Denver Center
04:12PM 43.7489 -105.6981 82° East 485 558 37,000  Level Denver Center
04:13PM 43.7669 -105.5211 82° East 485 558 37,000  Level Denver Center
04:14PM 43.7853 -105.3167 83° East 481 554 37,000  Level Denver Center
04:15PM 43.8014 -105.1428 83° East 477 549 37,000  Level Denver Center
04:16PM 43.8206 -104.9383 83° East 478 550 37,000  Level Denver Center
04:17PM 43.8342 -104.7644 84° East 476 548 37,000  Level Denver Center
04:18PM 43.8514 -104.5875 82° East 480 552 37,000  Level Denver Center
04:19PM 43.8681 -104.3844 83° East 476 548 37,000  Level Denver Center
04:20PM 43.8822 -104.2117 83° East 471 542 37,000  Level Denver Center
04:21PM 43.8994 -104.0067 83° East 477 549 37,000  Level Denver Center
04:22PM 43.9133 -103.8331 84° East 475 547 37,000  Level Denver Center
04:23PM 43.9303 -103.6297 83° East 473 544 37,000  Level Denver Center
04:24PM 43.9433 -103.4514 84° East 478 550 37,000  Level Denver Center
04:25PM 43.9606 -103.2503 83° East 473 544 37,000  Level Denver Center
04:26PM 43.9742 -103.0736 84° East 477 549 37,000  Level Denver Center
04:27PM 43.9750 -102.8669 90° East 479 551 37,000  Level Denver Center
04:28PM 43.9678 -102.6756 93° East 480 552 37,000  Level Denver Center
04:29PM 43.9603 -102.4894 93° East 485 558 37,000  Level Denver Center
04:30PM 43.9525 -102.3039 93° East 483 556 37,000  Level Denver Center
04:31PM 43.9458 -102.1175 93° East 484 557 37,000  Level Denver Center
04:32PM 43.9389 -101.9331 93° East 483 556 37,000  Level Denver Center
04:33PM 43.9308 -101.7489 93° East 480 552 37,000  Level Denver Center
04:34PM 43.9294 -101.5378 90° East 467 537 37,000  Level Denver Center
04:36PM 43.9200 -101.3547 94° East 474 545 37,000  Level Minneapolis Center
04:37PM 43.9144 -101.1800 92° East 467 537 37,000  Level Minneapolis Center
04:38PM 43.9075 -101.0000 93° East 469 540 37,000  Level Minneapolis Center
04:39PM 43.8994 -100.8208 94° East 468 539 37,000  Level Minneapolis Center
04:40PM 43.8900 -100.6069 93° East 467 537 37,000  Level Minneapolis Center
04:41PM 43.8803 -100.4253 94° East 471 542 37,000  Level Minneapolis Center
04:42PM 43.8719 -100.2475 94° East 468 539 37,000  Level Minneapolis Center
04:43PM 43.8636 -100.0692 94° East 467 537 37,000  Level Minneapolis Center
04:44PM 43.8550 -99.8903 94° East 467 537 37,000  Level Minneapolis Center
04:45PM 43.8431 -99.6756 94° East 469 540 37,000  Level Minneapolis Center
04:46PM 43.8322 -99.4978 95° East 467 537 37,000  Level Minneapolis Center
04:51PM 43.7754 -98.5225 95° East 467 537 37,000  Level FlightAware ADS-B
04:52PM 43.7696 -98.4333 95° East 467 537 37,000  Level FlightAware ADS-B
04:52PM 43.7628 -98.3297 95° East 466 536 37,000  Level FlightAware ADS-B
04:53PM 43.7569 -98.2400 95° East 466 536 37,000  Level FlightAware ADS-B
04:54PM 43.7472 -98.0971 95° East 466 536 37,000  Level FlightAware ADS-B
04:54PM 43.7395 -97.9863 95° East 469 540 37,000  Level FlightAware ADS-B
04:55PM 43.7331 -97.8945 95° East 472 543 37,000  Level FlightAware ADS-B
04:56PM 43.7197 -97.7285 96° East 474 545 37,000  Level FlightAware ADS-B
04:56PM 43.7122 -97.6379 97° East 475 547 37,000  Level FlightAware ADS-B
04:57PM 43.7017 -97.5104 96° East 475 547 37,000 300 Level FlightAware ADS-B
04:58PM 43.6899 -97.3693 97° East 475 547 37,500 720 Climbing FlightAware ADS-B
04:58PM 43.6822 -97.2786 97° East 474 545 38,000 960 Climbing FlightAware ADS-B
04:59PM 43.6746 -97.1885 97° East 471 542 38,500 840 Climbing FlightAware ADS-B
04:59PM 43.6668 -97.0980 97° East 471 542 38,900 480 Climbing FlightAware ADS-B
05:00PM 43.6588 -97.0060 97° East 470 541 39,000 60 Climbing FlightAware ADS-B
05:00PM 43.6507 -96.9132 97° East 468 539 39,000  Level FlightAware ADS-B
05:01PM 43.6350 -96.7390 97° East 468 539 39,000  Level FlightAware
05:02PM 43.6309 -96.6917 97° East 468 539 39,000  Level FlightAware ADS-B
05:02PM 43.6228 -96.6024 97° East 469 540 39,000  Level FlightAware ADS-B
05:03PM 43.6147 -96.5131 97° East 469 540 39,000  Level FlightAware ADS-B
05:03PM 43.6063 -96.4214 97° East 469 540 39,000  Level FlightAware ADS-B
05:04PM 43.5980 -96.3326 97° East 469 540 39,000  Level FlightAware ADS-B
05:04PM 43.5895 -96.2419 97° East 468 539 39,000  Level FlightAware ADS-B
05:05PM 43.5810 -96.1520 97° East 468 539 39,000  Level FlightAware ADS-B
05:05PM 43.5725 -96.0630 97° East 468 539 39,000  Level FlightAware ADS-B
05:06PM 43.5638 -95.9720 97° East 468 539 39,000  Level FlightAware ADS-B
05:06PM 43.5551 -95.8829 98° East 468 539 39,000  Level FlightAware ADS-B
05:07PM 43.5463 -95.7925 98° East 469 540 39,000  Level FlightAware ADS-B
05:07PM 43.5374 -95.7024 98° East 469 540 39,000  Level FlightAware ADS-B
05:08PM 43.5286 -95.6138 98° East 469 540 39,000  Level FlightAware ADS-B
05:08PM 43.5194 -95.5225 98° East 469 540 39,000  Level FlightAware ADS-B
05:09PM 43.5104 -95.4339 98° East 471 542 39,000  Level FlightAware ADS-B
05:09PM 43.5010 -95.3413 98° East 472 543 39,000  Level FlightAware ADS-B
05:10PM 43.4915 -95.2485 98° East 472 543 39,000  Level FlightAware ADS-B
05:10PM 43.4820 -95.1569 98° East 472 543 39,000  Level FlightAware ADS-B
05:11PM 43.4723 -95.0638 98° East 472 543 39,000  Level FlightAware ADS-B
05:12PM 43.4510 -94.8650 98° East 471 542 39,000  Level FlightAware
05:13PM 43.4370 -94.7370 99° East 470 541 39,000  Level FlightAware
05:13PM 43.4260 -94.6270 98° East 469 540 39,000  Level FlightAware
05:14PM 43.4110 -94.4950 99° East 468 539 39,000  Level FlightAware
05:15PM 43.3980 -94.3760 99° East 467 537 39,000  Level FlightAware
05:15PM 43.3870 -94.2750 98° East 466 536 39,000  Level FlightAware
05:16PM 43.3730 -94.1550 99° East 466 536 39,000  Level FlightAware
05:17PM 43.3590 -94.0270 99° East 466 536 39,000  Level FlightAware
05:17PM 43.3480 -93.9330 99° East 466 536 39,000  Level FlightAware
05:18PM 43.3340 -93.8140 99° East 465 535 39,000  Level FlightAware
05:18PM 43.3220 -93.7130 99° East 465 535 39,000  Level FlightAware
05:19PM 43.3060 -93.5790 99° East 465 535 39,000  Level FlightAware
05:20PM 43.2930 -93.4650 99° East 466 536 39,000  Level FlightAware
05:21PM 43.2770 -93.3330 99° East 466 536 39,000  Level FlightAware
05:21PM 43.2630 -93.2180 99° East 465 535 39,000  Level FlightAware
05:22PM 43.2480 -93.0930 99° East 465 535 39,000  Level FlightAware
05:23PM 43.2330 -92.9740 100° East 464 534 39,000  Level FlightAware
05:23PM 43.2180 -92.8560 100° East 464 534 39,000  Level FlightAware
05:24PM 43.2020 -92.7260 100° East 463 533 39,000  Level FlightAware
05:25PM 43.1870 -92.6090 100° East 463 533 39,000  Level FlightAware
05:25PM 43.1710 -92.4800 100° East 463 533 39,000  Level FlightAware
05:26PM 43.1570 -92.3760 100° East 463 533 39,000  Level FlightAware
05:27PM 43.1400 -92.2450 100° East 463 533 39,000  Level FlightAware
05:28PM 43.1250 -92.1260 100° East 464 534 39,000  Level FlightAware
05:28PM 43.1080 -91.9970 100° East 465 535 39,000  Level FlightAware
05:29PM 43.0930 -91.8910 101° East 466 536 39,000  Level FlightAware
05:30PM 43.0750 -91.7550 100° East 466 536 39,000  Level FlightAware
05:30PM 43.0590 -91.6400 101° East 468 539 39,000  Level FlightAware
05:31PM 43.0440 -91.5250 100° East 469 540 39,000  Level FlightAware
05:32PM 43.0260 -91.3960 101° East 471 542 39,000  Level FlightAware
05:32PM 43.0090 -91.2740 101° East 471 542 39,000  Level FlightAware
05:33PM 42.9910 -91.1480 101° East 472 543 39,000  Level FlightAware
05:34PM 42.9770 -91.0480 101° East 472 543 39,000  Level FlightAware
05:34PM 42.9600 -90.9280 101° East 472 543 39,000  Level FlightAware
05:35PM 42.9420 -90.8060 101° East 472 543 39,000  Level FlightAware
05:36PM 42.9250 -90.6900 101° East 474 545 39,000  Level FlightAware
05:36PM 42.9100 -90.5860 101° East 475 547 39,000  Level FlightAware
05:37PM 42.8980 -90.5010 101° East 475 547 39,000  Level FlightAware
05:38PM 42.8780 -90.3680 102° East 475 547 39,000  Level FlightAware
05:38PM 42.8550 -90.2120 101° East 475 547 39,000  Level FlightAware
05:39PM 42.8350 -90.0810 102° East 475 547 39,000  Level FlightAware
05:40PM 42.8170 -89.9650 102° East 475 547 39,000  Level FlightAware
05:40PM 42.8060 -89.8870 101° East 475 547 39,000  Level FlightAware
05:41PM 42.7900 -89.7820 102° East 475 547 39,000  Level FlightAware
05:42PM 42.7700 -89.6540 102° East 474 545 39,000  Level FlightAware
05:42PM 42.7500 -89.5260 102° East 473 544 39,000  Level FlightAware
05:43PM 42.7350 -89.4290 102° East 472 543 39,000  Level FlightAware
05:44PM 42.7160 -89.3110 102° East 469 540 39,000  Level FlightAware
05:44PM 42.6970 -89.1900 102° East 468 539 39,000  Level FlightAware
05:45PM 42.6770 -89.0650 102° East 466 536 39,000  Level FlightAware
05:46PM 42.6580 -88.9500 103° East 466 536 39,000  Level FlightAware
05:46PM 42.6370 -88.8220 103° East 465 535 39,000  Level FlightAware
05:47PM 42.6190 -88.7080 102° East 464 534 39,000  Level FlightAware
05:48PM 42.5980 -88.5840 103° East 465 535 39,000  Level FlightAware
05:49PM 42.5790 -88.4690 103° East 466 536 39,000  Level FlightAware
05:49PM 42.5590 -88.3510 103° East 467 537 39,000  Level FlightAware
05:50PM 42.5400 -88.2340 102° East 467 537 39,000  Level FlightAware
05:51PM 42.5190 -88.1110 103° East 467 537 39,000  Level FlightAware
05:51PM 42.5030 -87.9970 101° East 469 540 39,000  Level FlightAware
05:52PM 42.4990 -87.8870 93° East 470 541 39,000  Level FlightAware
05:53PM 42.4990 -87.7670 90° East 470 541 39,000  Level FlightAware
05:53PM 42.5000 -87.6310 89° East 470 541 39,000  Level FlightAware
05:54PM 42.4990 -87.5190 91° East 470 541 39,000  Level FlightAware
05:55PM 42.4990 -87.3920 90° East 470 541 39,000  Level FlightAware
05:56PM 42.4980 -87.2280 90° East 470 541 39,000  Level FlightAware
05:56PM 42.4970 -87.1130 91° East 471 542 39,000  Level FlightAware
05:57PM 42.4960 -87.0010 91° East 472 543 39,000  Level FlightAware
05:58PM 42.4950 -86.8800 91° East 473 544 39,000  Level FlightAware
05:58PM 42.4940 -86.7560 91° East 474 545 39,000  Level FlightAware
05:59PM 42.4920 -86.6300 91° East 475 547 39,000  Level FlightAware
06:00PM 42.4910 -86.5020 91° East 475 547 39,000  Level FlightAware
06:00PM 42.4890 -86.3840 91° East 476 548 39,000  Level FlightAware
06:01PM 42.4870 -86.2700 91° East 477 549 39,000  Level FlightAware
06:02PM 42.4850 -86.1320 91° East 477 549 39,000  Level FlightAware
06:03PM 42.4830 -86.0090 91° East 478 550 39,000  Level FlightAware
06:03PM 42.4810 -85.8820 91° East 478 550 39,000  Level FlightAware
06:04PM 42.4790 -85.7650 91° East 478 550 39,000  Level FlightAware
06:05PM 42.4760 -85.6190 92° East 477 549 39,000  Level FlightAware
06:05PM 42.4740 -85.5030 91° East 477 549 39,000  Level FlightAware
06:06PM 42.4710 -85.3940 92° East 477 549 39,000  Level FlightAware
06:07PM 42.4680 -85.2740 92° East 477 549 39,000  Level FlightAware
06:07PM 42.4650 -85.1500 92° East 477 549 39,000  Level FlightAware
06:08PM 42.4630 -85.0130 91° East 477 549 39,000  Level FlightAware
06:09PM 42.4510 -84.8430 95° East 478 550 39,000  Level FlightAware
06:10PM 42.4440 -84.7200 94° East 480 552 39,000  Level FlightAware
06:10PM 42.4370 -84.5810 94° East 481 554 39,000  Level FlightAware
06:11PM 42.4330 -84.5170 95° East 481 554 39,000  Level FlightAware
06:12PM 42.4270 -84.3970 94° East 480 552 39,000  Level FlightAware
06:12PM 42.4200 -84.2820 95° East 482 555 39,000  Level FlightAware
06:13PM 42.4130 -84.1630 95° East 482 555 39,000  Level FlightAware
06:14PM 42.4050 -84.0230 94° East 481 554 39,000  Level FlightAware
06:14PM 42.3980 -83.9040 95° East 483 556 39,000  Level FlightAware
06:15PM 42.3900 -83.7740 95° East 482 555 39,000  Level FlightAware
06:16PM 42.3820 -83.6530 95° East 480 552 39,000  Level FlightAware
06:16PM 42.3740 -83.5210 95° East 478 550 39,000  Level FlightAware
06:17PM 42.3660 -83.4260 96° East 478 550 39,000  Level FlightAware
06:18PM 42.3410 -83.3030 105° East 477 549 39,000  Level FlightAware
06:18PM 42.3150 -83.1880 107° East 478 550 39,000  Level FlightAware
06:19PM 42.2920 -83.0850 107° East 479 551 39,000  Level FlightAware
06:22PM 42.2030 -82.5660 103° East 483 556 39,000  Level FlightAware
06:23PM 42.1960 -82.4270 94° East 484 557 39,000  Level FlightAware
06:24PM 42.1890 -82.2970 94° East 483 556 39,000  Level FlightAware
06:24PM 42.1800 -82.1260 94° East 482 555 39,000  Level FlightAware
06:25PM 42.1730 -81.9940 94° East 482 555 39,000  Level FlightAware
06:26PM 42.1640 -81.8330 94° East 480 552 39,000  Level FlightAware
06:27PM 42.1560 -81.6990 95° East 480 552 39,000  Level FlightAware
06:27PM 42.1500 -81.5820 94° East 479 551 39,000  Level FlightAware
06:28PM 42.1420 -81.4490 95° East 477 549 39,000  Level FlightAware
06:29PM 42.1350 -81.3450 95° East 476 548 39,000  Level FlightAware
06:29PM 42.1280 -81.2250 94° East 474 545 39,000  Level FlightAware
06:30PM 42.1200 -81.0970 95° East 473 544 39,000  Level FlightAware
06:31PM 42.1130 -80.9930 95° East 473 544 39,000  Level FlightAware
06:31PM 42.1050 -80.8740 95° East 472 543 39,000  Level FlightAware
06:32PM 42.0980 -80.7730 95° East 472 543 39,000  Level FlightAware
06:33PM 42.0870 -80.6040 95° East 474 545 39,000  Level FlightAware
06:34PM 42.0790 -80.4870 95° East 474 545 39,000  Level FlightAware
06:34PM 42.0730 -80.4000 95° East 474 545 39,000  Level FlightAware
06:35PM 42.0640 -80.2710 95° East 475 547 39,000  Level FlightAware
06:36PM 42.0540 -80.1350 96° East 475 547 39,000  Level FlightAware
06:36PM 42.0480 -80.0480 95° East 475 547 39,000  Level FlightAware
06:37PM 42.0380 -79.9220 96° East 474 545 39,000  Level FlightAware
06:38PM 42.0300 -79.8070 95° East 474 545 39,000  Level FlightAware
06:38PM 42.0220 -79.7060 96° East 475 547 39,000  Level FlightAware
06:39PM 42.0110 -79.5620 96° East 475 547 39,000  Level FlightAware
06:40PM 42.0020 -79.4430 96° East 476 548 39,000  Level FlightAware
06:40PM 41.9910 -79.3130 96° East 477 549 39,000  Level FlightAware
06:41PM 41.9820 -79.1970 96° East 478 550 39,000  Level FlightAware
06:42PM 41.9720 -79.0690 96° East 480 552 39,000  Level FlightAware
06:42PM 41.9620 -78.9480 96° East 481 554 39,000  Level FlightAware
06:43PM 41.9510 -78.8220 97° East 482 555 39,000  Level FlightAware
06:44PM 41.9400 -78.6980 97° East 484 557 39,000  Level FlightAware
06:44PM 41.9290 -78.5680 96° East 484 557 39,000  Level FlightAware
06:45PM 41.9190 -78.4490 96° East 486 559 39,000  Level FlightAware
06:46PM 41.9080 -78.3220 97° East 488 562 39,000  Level FlightAware
06:46PM 41.8970 -78.2060 97° East 488 562 39,000  Level FlightAware
06:47PM 41.8850 -78.0710 97° East 489 563 39,000  Level FlightAware
06:48PM 41.8730 -77.9420 97° East 490 564 39,000  Level FlightAware
06:49PM 41.8530 -77.8100 101° East 489 563 39,000  Level FlightAware
06:49PM 41.8260 -77.7010 108° East 488 562 39,000  Level FlightAware
06:50PM 41.8000 -77.6030 110° East 488 562 39,000  Level FlightAware
06:51PM 41.7660 -77.4770 110° East 487 560 39,000  Level FlightAware
06:51PM 41.7320 -77.3520 110° East 488 562 39,000  Level FlightAware
06:52PM 41.7050 -77.2490 109° East 487 560 39,000  Level FlightAware
06:53PM 41.6750 -77.1360 110° East 487 560 39,000  Level FlightAware
06:53PM 41.6493 -77.0426 110° East 489 563 39,000  Level FlightAware ADS-B
06:54PM 41.6213 -76.9396 110° East 489 563 39,000  Level FlightAware ADS-B
06:54PM 41.5979 -76.8536 110° East 488 562 39,000  Level FlightAware ADS-B
06:55PM 41.5730 -76.7625 110° East 487 560 39,000  Level FlightAware ADS-B
06:55PM 41.5498 -76.6778 110° East 486 559 39,000  Level FlightAware ADS-B
06:56PM 41.5245 -76.5861 110° East 486 559 39,000  Level FlightAware ADS-B
06:56PM 41.4979 -76.4897 110° East 486 559 39,000  Level FlightAware ADS-B
06:57PM 41.4716 -76.3947 110° East 484 557 39,000  Level FlightAware ADS-B
06:58PM 41.4480 -76.3098 110° East 482 555 39,000  Level FlightAware ADS-B
06:58PM 41.4247 -76.2263 110° East 480 552 39,000 -900 Level FlightAware ADS-B
06:59PM 41.4000 -76.1387 111° Southeast 479 551 38,100 -2,280 Descending FlightAware ADS-B
06:59PM 41.3750 -76.0496 110° East 482 555 36,600 -2,820 Descending FlightAware ADS-B
07:00PM 41.3500 -75.9609 111° Southeast 483 556 35,100 -3,000 Descending FlightAware ADS-B
07:00PM 41.3257 -75.8755 111° Southeast 486 559 33,500 -3,240 Descending FlightAware ADS-B
07:01PM 41.3011 -75.7886 111° Southeast 490 564 31,800 -3,480 Descending FlightAware ADS-B
07:01PM 41.2795 -75.7138 111° Southeast 492 566 30,200 -3,720 Descending FlightAware ADS-B
07:02PM 41.2527 -75.6289 113° Southeast 495 570 28,300 -3,360 Descending FlightAware ADS-B
07:02PM 41.2233 -75.5402 114° Southeast 488 562 26,700 -3,000 Descending FlightAware ADS-B
07:03PM 41.1928 -75.4492 114° Southeast 480 552 25,100 -2,880 Descending FlightAware ADS-B
07:03PM 41.1660 -75.3695 114° Southeast 472 543 23,700 -2,040 Descending FlightAware ADS-B
07:04PM 41.1394 -75.2907 114° Southeast 469 540 23,100 -720 Descending FlightAware ADS-B
07:04PM 41.1122 -75.2105 114° Southeast 465 535 23,000 -120 Descending FlightAware ADS-B
07:05PM 41.0856 -75.1319 114° Southeast 463 533 23,000  Level FlightAware ADS-B
07:05PM 41.0582 -75.0515 114° Southeast 465 535 23,000  Level FlightAware ADS-B
07:06PM 41.0280 -74.9627 114° Southeast 464 534 23,000  Level FlightAware ADS-B
07:06PM 41.0088 -74.9042 113° Southeast 461 531 23,000  Level FlightAware ADS-B
07:06PM 40.9969 -74.8552 108° East 460 529 23,000  Level FlightAware ADS-B
07:07PM 40.9890 -74.8057 102° East 459 528 23,000  Level FlightAware ADS-B
07:07PM 40.9792 -74.7221 99° East 459 528 23,000 -960 Level FlightAware ADS-B
07:08PM 40.9692 -74.6264 98° East 455 524 22,000 -2,160 Descending FlightAware ADS-B
07:08PM 40.9604 -74.5432 98° East 448 516 20,700 -1,920 Descending FlightAware ADS-B
07:09PM 40.9518 -74.4640 98° East 425 489 20,100 -1,200 Descending FlightAware ADS-B
07:09PM 40.9432 -74.3859 98° East 402 463 19,500 -1,080 Descending FlightAware ADS-B
07:10PM 40.9346 -74.3093 98° East 378 435 19,000 -540 Descending FlightAware ADS-B
07:10PM 40.9272 -74.2440 99° East 350 403 19,000  Level FlightAware ADS-B
07:11PM 40.9200 -74.1790 98° East 342 394 19,000 -180 Level FlightAware ADS-B
07:11PM 40.9175 -74.1608 100° East 341 392 18,900 -960 Descending FlightAware ADS-B
07:11PM 40.9130 -74.1406 106° East 342 394 18,700 -1,200 Descending FlightAware ADS-B
07:11PM 40.9099 -74.1312 114° Southeast 343 395 18,600 -1,380 Descending FlightAware ADS-B
07:11PM 40.9068 -74.1237 119° Southeast 343 395 18,500 -1,380 Descending FlightAware ADS-B
07:12PM 40.9020 -74.1144 124° Southeast 343 395 18,400 -1,320 Descending FlightAware ADS-B
07:12PM 40.8922 -74.1003 133° Southeast 344 396 18,200 -1,680 Descending FlightAware ADS-B
07:12PM 40.8904 -74.0983 140° Southeast 344 396 18,100 -2,040 Descending FlightAware ADS-B
07:12PM 40.8845 -74.0922 142° Southeast 344 396 18,000 -1,020 Descending FlightAware ADS-B
07:12PM 40.8820 -74.0899 145° Southeast 345 397 18,000 -1,380 Level FlightAware ADS-B
07:12PM 40.8725 -74.0829 151° Southeast 345 397 17,800 -1,800 Descending FlightAware ADS-B
07:12PM 40.8676 -74.0801 157° South 345 397 17,700 -1,860 Descending FlightAware ADS-B
07:12PM 40.8532 -74.0742 163° South 346 398 17,400 -1,980 Descending FlightAware ADS-B
07:12PM 40.8203 -74.0642 167° South 349 402 16,700 -1,980 Descending FlightAware ADS-B
07:13PM 40.8035 -74.0593 168° South 349 402 16,400 -1,620 Descending FlightAware ADS-B
07:13PM 40.7724 -74.0502 168° South 346 398 15,900 -1,140 Descending FlightAware ADS-B
07:13PM 40.7521 -74.0444 168° South 342 394 15,800 -240 Descending FlightAware ADS-B
07:14PM 40.7252 -74.0366 168° South 340 391 15,800 -540 Level FlightAware ADS-B
07:14PM 40.7007 -74.0295 168° South 337 388 15,500 -1,380 Descending FlightAware ADS-B
07:14PM 40.6777 -74.0228 168° South 335 386 15,100 -1,620 Descending FlightAware ADS-B
07:15PM 40.6310 -74.0091 167° South 332 382 14,300 -1,440 Descending FlightAware ADS-B
07:15PM 40.6093 -74.0028 168° South 335 386 14,000 -1,260 Descending FlightAware ADS-B
07:15PM 40.5804 -73.9944 168° South 328 377 13,600 -1,500 Descending FlightAware ADS-B
07:16PM 40.5303 -73.9800 168° South 320 368 12,700 -1,620 Descending FlightAware ADS-B
07:16PM 40.4872 -73.9681 168° South 313 360 11,900 -1,980 Descending FlightAware ADS-B
07:16PM 40.4642 -73.9600 165° South 309 356 11,200 -2,460 Descending FlightAware ADS-B
07:17PM 40.4514 -73.9500 149° Southeast 303 349 10,800 -2,280 Descending FlightAware ADS-B
07:17PM 40.4452 -73.9438 143° Southeast 301 346 10,600 -2,460 Descending FlightAware ADS-B
07:17PM 40.4272 -73.9237 140° Southeast 299 344 9,900 -2,520 Descending FlightAware ADS-B
07:17PM 40.4097 -73.9040 139° Southeast 298 343 9,200 -2,580 Descending FlightAware ADS-B
07:18PM 40.3934 -73.8849 138° Southeast 294 338 8,500 -2,340 Descending FlightAware ADS-B
07:18PM 40.3782 -73.8668 138° Southeast 292 336 8,000 -2,340 Descending FlightAware ADS-B
07:18PM 40.3624 -73.8477 137° Southeast 292 336 7,300 -2,340 Descending FlightAware ADS-B
07:18PM 40.3441 -73.8257 137° Southeast 294 338 6,700 -1,620 Descending FlightAware ADS-B
07:19PM 40.3290 -73.8075 137° Southeast 293 337 6,400 -1,320 Descending FlightAware ADS-B
07:19PM 40.2989 -73.7709 137° Southeast 290 334 5,700 -1,320 Descending FlightAware ADS-B
07:20PM 40.2797 -73.7417 131° Southeast 289 333 5,300 -1,320 Descending FlightAware ADS-B
07:20PM 40.2769 -73.7318 110° East 287 330 5,100 -1,320 Descending FlightAware ADS-B
07:20PM 40.2870 -73.6790 76° East 274 315 4,400 -1,320 Descending FlightAware
07:20PM 40.3005 -73.6664 35° Northeast 279 321 4,100 -660 Descending FlightAware ADS-B
07:21PM 40.3480 -73.6320 29° Northeast 273 314 3,800 -300 Descending FlightAware
07:22PM 40.3780 -73.6100 29° Northeast 273 314 3,800  Level FlightAware
07:22PM 40.4020 -73.5920 30° Northeast 272 313 3,800  Level FlightAware
07:22PM 40.4300 -73.5710 30° Northeast 272 313 3,800  Level FlightAware
07:23PM 40.4610 -73.5490 28° Northeast 273 314 3,800  Level FlightAware
07:23PM 40.4950 -73.5240 29° Northeast 274 315 3,800  Level FlightAware
07:24PM 40.5220 -73.5040 29° Northeast 274 315 3,800  Level FlightAware
07:24PM 40.5310 -73.5000 19° North 269 310 3,800  Level FlightAware
07:24PM 40.5660 -73.4910 11° North 239 275 3,800  Level FlightAware
07:25PM 40.5950 -73.4850 North 228 262 3,800  Level FlightAware
07:25PM 40.6220 -73.4790 10° North 226 260 3,800  Level FlightAware
07:26PM 40.6530 -73.4720 10° North 228 262 3,800 60 Level FlightAware
07:27PM 40.6920 -73.4810 350° North 189 217 3,900  Climbing FlightAware
07:27PM 40.7020 -73.4870 336° Northwest 189 217 3,800 -180 Descending FlightAware
07:27PM 40.7250 -73.4980 340° North 191 220 3,800  Level FlightAware
07:28PM 40.7500 -73.5100 340° North 189 217 3,800 -120 Level FlightAware
07:28PM 40.7730 -73.5220 338° Northwest 188 216 3,700 -540 Descending FlightAware
07:29PM 40.7930 -73.5410 324° Northwest 182 209 3,300 -900 Descending FlightAware
07:29PM 40.8020 -73.5630 298° West 183 211 2,900 -600 Descending FlightAware
07:29PM 40.8100 -73.5910 291° West 185 213 2,800 -300 Descending FlightAware
07:30PM 40.8050 -73.6060 246° West 177 204 2,700 -660 Descending FlightAware
07:30PM 40.7900 -73.6330 234° Southwest 168 193 2,300 -600 Descending FlightAware
07:30PM 40.7850 -73.6420 234° Southwest 161 185 2,300 -600 Level FlightAware
07:31PM 40.7680 -73.6590 217° Southwest 156 180 1,900 -540 Descending FlightAware
07:31PM 40.7510 -73.6730 212° Southwest 160 184 1,800 -120 Descending FlightAware
07:32PM 40.7320 -73.6870 209° Southwest 159 183 1,800 -300 Level FlightAware
07:32PM 40.7230 -73.6940 211° Southwest 164 189 1,600 -900 Descending FlightAware
07:33PM 40.7060 -73.7080 212° Southwest 151 174 1,200 -780 Descending FlightAware
07:33PM 40.6890 -73.7210 210° Southwest 130 150 900 -720 Descending FlightAware
07:33PM 40.6830 -73.7250 207° Southwest 124 143 700 -780 Descending FlightAware
07:34PM 40.6690 -73.7360 211° Southwest 128 147 400 -540 Descending FlightAware
07:34PM 40.6610 -73.7430 214° Southwest 126 145 300 -360 Descending FlightAware
07:34PM 40.6470 -73.7530 208° Southwest 128 147 -720 Descending FlightAware
07:35PM 40.6360 -73.7620 212° Southwest 92 106  Level FlightAware
07:35PM 40.6300 -73.7680 217° Southwest 32 37  Level FlightAware
07:36PM 40.6290 -73.7690 217° Southwest 19 22  Level FlightAware
07:36PM 40.6310 -73.7700 339° North 19 22  Level FlightAware
07:36PM 40.6320 -73.7690 37° Northeast 21 24  Level FlightAware